This is the latest recevied weather packets stored in our database for station/object K9JWM. If no packets are shown the sender has not sent any weather packets the latest 10 day(s).
| Time | Temp. | Humidity | Pressure | Rain* | Wind** | Luminosity | Snow |
|---|---|---|---|---|---|---|---|
| 1777343993 | 6.67° C | 96% | 997.9 hPa | 0 mm | - | - | - |
| 1777343094 | 7.78° C | 96% | 997.8 hPa | 0.25 mm | - | - | - |
| 1777342193 | 8.89° C | 97% | 997.1 hPa | 0.51 mm | - | - | - |
| 1777341294 | 9.44° C | 97% | 997 hPa | 0.76 mm | - | - | - |
| 1777340393 | 10° C | 97% | 996.7 hPa | 0.76 mm | - | - | - |
| 1777339494 | 10.56° C | 97% | 996.7 hPa | 1.27 mm | - | - | - |
| 1777338594 | 11.11° C | 97% | 996.8 hPa | 2.29 mm | - | - | - |
| 1777337694 | 11.11° C | 97% | 996.6 hPa | 2.03 mm | - | - | - |
| 1777336793 | 11.11° C | 97% | 996.6 hPa | 2.29 mm | - | - | - |
| 1777335893 | 11.11° C | 97% | 996.5 hPa | 2.54 mm | - | - | - |
| 1777334995 | 11.11° C | 97% | 996.5 hPa | 2.54 mm | - | - | - |
| 1777334094 | 11.11° C | 97% | 996.4 hPa | 2.79 mm | - | - | - |
| 1777333194 | 11.11° C | 97% | 996.6 hPa | 3.05 mm | - | - | - |
| 1777332293 | 11.11° C | 97% | 996.8 hPa | 2.03 mm | - | - | - |
| 1777331394 | 11.11° C | 97% | 996.9 hPa | 1.27 mm | - | - | - |
| 1777330494 | 11.11° C | 98% | 996.9 hPa | 1.27 mm | - | - | - |
| 1777329593 | 10.56° C | 97% | 996.9 hPa | 1.02 mm | - | - | - |
| 1777328694 | 10.56° C | 97% | 997.1 hPa | 1.02 mm | - | - | - |
| 1777327795 | 10.56° C | 97% | 997.3 hPa | 1.52 mm | - | - | - |
| 1777326893 | 11.11° C | 97% | 997.7 hPa | 2.29 mm | - | - | - |
| 1777325994 | 11.11° C | 97% | 998 hPa | 3.05 mm | - | - | - |
| 1777325094 | 10.56° C | 97% | 998.1 hPa | 4.32 mm | - | - | - |
| 1777324194 | 10.56° C | 97% | 998.3 hPa | 4.57 mm | - | - | - |
| 1777323295 | 10.56° C | 97% | 998.6 hPa | 4.83 mm | - | - | - |
| 1777322393 | 10.56° C | 97% | 999 hPa | 4.57 mm | - | - | - |
* Rain latest hour (hover to see other rain measurements)
** Current wind speed in m/s (hover to see current wind gust speed)